Weather History for Muscle Shoals, AL

Change the Weather History Date:

Wednesday, March 21, 2012

  Actual Average Record
Temperature  
Mean Temperature 71 °F 55 °F  
Max Temperature 80 °F 66 °F 86 °F (1966)
Min Temperature 62 °F 43 °F 20 °F (1965)
Degree Days  
Heating Degree Days 0 11  
Month to date heating degree days 111 282  
Since 1 July heating degree days 2197 2817  
Cooling Degree Days 6 0  
Month to date cooling degree days 53 0  
Year to date cooling degree days 63 1  
Growing Degree Days 21 (Base 50)    
Moisture  
Dew Point 56 °F    
Average Humidity 60    
Maximum Humidity 72    
Minimum Humidity 48    
Precipitation  
Precipitation T in 0.16 in 4.80 in (1955)
Month to date precipitation 1.66 3.20  
Year to date precipitation 11.32 12.47  
Snow  
Snow 0.00 in - - ()
Month to date snowfall 0.0  
Since 1 July snowfall 0.1  
Snow Depth 0.00 in    
Sea Level Pressure  
Sea Level Pressure 30.05 in    
Wind  
Wind Speed 9 mph (SE)    
Max Wind Speed 20 mph    
Max Gust Speed 28 mph    
Visibility 10 miles    
Events      
T = Trace of Precipitation, MM = Missing Value Source: NWS Daily Summary

Daily Weather History Graph

Daily Weather History Graph

Search for Another Location

Airport:

Trip Planner

Search our weather history database for the weather conditions in past years. The results will help you decide how hot, cold, wet, or windy it might be!

Date:

Astronomy

Mar. 21, 2012 Rise Set
Actual Time 6:51 AM CDT 7:03 PM CDT
Civil Twilight 6:26 AM CDT 7:28 PM CDT
Nautical Twilight 5:57 AM CDT 7:57 PM CDT
Astronomical Twilight 5:27 AM CDT 8:27 PM CDT
Moon 6:02 AM CDT (3/21) 6:29 PM CDT (3/21)
Length of Visible Light 13h 01m
Length of Day
12h 11m
Waning Crescent, 1% of the Moon is Illuminated
Mar 21
Waning Crescent
Mar 22
New
Mar 30
First Quarter
Apr 6
Full
Apr 13
Last Quarter

Hourly Weather History & Observations

Time (CDT) Temp. Heat Index Dew Point Humidity Pressure Visibility Wind Dir Wind Speed Gust Speed Precip Events Conditions
12:53 AM 68.0 °F - 53.1 °F 59% 30.04 in 10.0 mi SE 5.8 mph - N/A   Clear
1:53 AM 66.0 °F - 53.1 °F 63% 30.04 in 10.0 mi ESE 5.8 mph - N/A   Clear
2:53 AM 64.9 °F - 53.1 °F 65% 30.03 in 10.0 mi ESE 5.8 mph - N/A   Clear
3:53 AM 64.0 °F - 53.1 °F 67% 30.03 in 10.0 mi ESE 5.8 mph - N/A   Clear
4:53 AM 62.1 °F - 52.0 °F 70% 30.05 in 10.0 mi ESE 4.6 mph - N/A   Clear
5:53 AM 63.0 °F - 53.1 °F 70% 30.06 in 10.0 mi ESE 5.8 mph - N/A   Clear
6:53 AM 62.1 °F - 53.1 °F 72% 30.07 in 10.0 mi ESE 5.8 mph - N/A   Clear
7:53 AM 66.0 °F - 55.9 °F 70% 30.08 in 10.0 mi ESE 5.8 mph - N/A   Clear
8:53 AM 71.1 °F - 57.0 °F 61% 30.09 in 10.0 mi SE 9.2 mph - N/A   Clear
9:53 AM 75.0 °F - 57.0 °F 53% 30.09 in 10.0 mi SE 11.5 mph 19.6 mph N/A   Clear
10:53 AM 77.0 °F - 59.0 °F 54% 30.08 in 10.0 mi SSE 16.1 mph 23.0 mph N/A   Clear
11:53 AM 80.1 °F 80.7 °F 59.0 °F 48% 30.06 in 10.0 mi SSE 16.1 mph 23.0 mph N/A   Clear
12:53 PM 79.0 °F - 59.0 °F 50% 30.06 in 10.0 mi SSE 17.3 mph 24.2 mph N/A   Mostly Cloudy
1:53 PM 80.1 °F 80.7 °F 59.0 °F 48% 30.04 in 10.0 mi SE 16.1 mph - N/A   Mostly Cloudy
2:53 PM 79.0 °F - 61.0 °F 54% 30.02 in 10.0 mi SE 9.2 mph 18.4 mph N/A   Scattered Clouds
3:53 PM 79.0 °F - 57.9 °F 48% 30.02 in 10.0 mi SE 12.7 mph - N/A   Partly Cloudy
4:53 PM 79.0 °F - 59.0 °F 50% 30.01 in 10.0 mi ESE 12.7 mph - N/A   Clear
5:53 PM 77.0 °F - 57.9 °F 52% 29.99 in 10.0 mi ESE 11.5 mph 19.6 mph N/A   Clear
6:53 PM 75.9 °F - 57.0 °F 52% 30.01 in 10.0 mi ESE 8.1 mph - N/A   Partly Cloudy
7:53 PM 73.9 °F - 55.9 °F 53% 30.02 in 10.0 mi ESE 6.9 mph - N/A   Overcast
8:53 PM 73.0 °F - 55.9 °F 55% 30.04 in 10.0 mi ESE 6.9 mph - N/A   Mostly Cloudy
9:53 PM 72.0 °F - 55.9 °F 57% 30.05 in 10.0 mi ESE 8.1 mph - N/A   Scattered Clouds
10:53 PM 71.1 °F - 55.9 °F 59% 30.06 in 10.0 mi ESE 8.1 mph - N/A   Overcast
11:53 PM 70.0 °F - 55.9 °F 61% 30.07 in 10.0 mi ESE 6.9 mph - N/A   Overcast